[[{"header":{"parameterUnit":"m.s-1","parameterCategory":1,"la1":30.2991,"la2":30.254,"lo1":-89.0895,"lo2":-89.0444,"dy":0.0017,"dx":0.0017,"nx":28,"ny":28,"refTime":"2024-06-15T09:00:00:Z","depth":0,"parameterNumber":2,"parameterNumberName":"U-component_of_WINDS"},"data":[0,0,0,0,0,0,0,0,0,0,0,0,0,0,0,0,0,0,0,0,0,0,0,0,0,0,0,0,0,0,0,0,0,0,0,0,0,0,0,0,0,0,0,0,0,0,0,0,0,0,0,0,0,0,0,0,0,0,-3.3817,-3.3817,0,-3.381,-3.381,-3.3809,-3.3743,-3.3741,-3.374,-3.3738,-3.3734,-3.3736,-3.3737,0,0,0,0,0,0,0,0,0,0,0,0,0,-3.3779,-3.378,-3.3817,-3.3817,-3.3817,-3.381,-3.381,-3.3809,-3.3743,-3.3741,-3.3739,-3.3737,-3.3734,-3.3736,-3.3737,0,0,0,0,0,0,0,0,0,0,0,0,0,-3.3786,-3.378,-3.3817,-3.3783,-3.3779,-3.381,-3.381,-3.3809,-3.3744,-3.3741,-3.3739,-3.3736,-3.3733,-3.3735,-3.3738,-3.3801,0,0,-3.3744,-3.3745,0,0,0,0,0,0,0,0,-3.3786,-3.3787,-3.3788,-3.3785,-3.3782,-3.3774,-3.3795,-3.3807,-3.3744,-3.3757,-3.3738,-3.3735,-3.375,-3.3751,-3.3755,-3.3801,-3.3801,-3.3744,-3.3746,-3.3747,-3.3747,0,0,0,0,0,0,0,-3.3785,-3.3787,-3.3814,-3.3788,-3.3784,-3.377,-3.3768,-3.3797,-3.3768,-3.3756,-3.3751,-3.3751,-3.3748,-3.3753,-3.3754,-3.3801,-3.3744,-3.3746,-3.3748,-3.3749,-3.3903,-3.3906,0,0,0,0,0,0,-3.3789,-3.3787,-3.3814,-3.3814,-3.3777,-3.3772,-3.377,-3.3779,-3.3767,-3.3763,-3.3753,-3.3748,-3.375,-3.3752,-3.3754,-3.383,-3.3747,-3.3749,-3.375,-3.39,-3.3904,-3.3907,0,0,0,0,0,0,-3.3788,-3.3792,-3.3815,-3.3799,-3.3801,-3.3776,-3.3786,-3.3781,-3.3785,-3.3765,-3.376,-3.3763,-3.3749,-3.3751,-3.3791,-3.3829,-3.375,-3.3752,-3.3897,-3.3901,-3.3905,-3.3981,0,0,0,0,0,0,-3.3787,-3.3792,-3.3814,-3.38,-3.3802,-3.385,-3.3789,-3.3782,-3.3789,-3.3782,-3.3773,-3.377,-3.3747,-3.3788,-3.3793,-3.383,-3.3753,-3.3893,-3.3899,-3.3904,-3.3975,-3.3987,-3.3998,0,0,0,0,0,-3.3786,-3.3836,-3.3816,-3.3819,-3.3829,-3.3852,-3.3853,-3.3825,-3.3792,-3.3816,-3.3803,-3.377,-3.3824,-3.3792,-3.3797,-3.3836,-3.3891,-3.3897,-3.3903,-3.397,-3.3985,-3.3998,0,0,0,0,0,0,-3.3856,-3.3833,-3.3811,-3.3857,-3.3857,-3.3841,-3.3869,-3.3841,-3.3851,-3.3844,-3.381,-3.3809,-3.3854,-3.3849,-3.3814,-3.3899,-3.3852,-3.3859,-3.3901,-3.3915,-3.3926,-3.3927,-3.3755,0,0,0,0,0,-3.3876,-3.3895,-3.3875,-3.3918,-3.3919,-3.3895,-3.3903,-3.3882,-3.388,-3.388,-3.387,-3.3872,-3.389,-3.3902,-3.3917,-3.3974,-3.3973,-3.4004,-3.4015,-3.4025,-3.4032,-3.4066,-3.408,-3.3927,-3.3927,-3.3927,0,0,-3.3919,-3.3909,-3.3923,-3.3932,-3.3929,-3.3952,-3.3895,-3.392,-3.3937,-3.3884,-3.3921,-3.3915,-3.3915,-3.3965,-3.3986,-3.3962,-3.4074,-3.4033,-3.4041,-3.4043,-3.4074,-3.4088,-3.4101,-3.3931,-3.3931,-3.393,0,0,-3.4009,-3.4002,-3.4038,-3.4037,-3.4034,-3.4018,-3.4027,-3.4016,-3.4009,-3.4046,-3.4008,-3.4029,-3.4059,-3.4061,-3.4066,-3.4161,-3.4132,-3.4167,-3.4227,-3.426,-3.4272,-3.4282,-3.4319,-3.4332,-3.4174,-3.4174,-3.4174,0,-3.4063,-3.4093,-3.4061,-3.409,-3.4096,-3.4049,-3.4088,-3.4089,-3.4091,-3.4098,-3.407,-3.4109,-3.4105,-3.4157,-3.418,-3.4185,-3.4197,-3.4167,-3.4272,-3.4283,-3.4292,-3.4326,-3.434,-3.4179,-3.4178,-3.4178,-3.4177,0,-3.4161,-3.4183,-3.4213,-3.4216,-3.4226,-3.4259,-3.4235,-3.4249,-3.4228,-3.4215,-3.4255,-3.425,-3.4264,-3.4275,-3.4254,-3.4324,-3.431,-3.4278,-3.423,-3.4312,-3.4343,-3.4356,-3.4185,-3.4183,-3.4182,-3.4181,0,0,-3.4292,-3.4279,-3.4291,-3.4293,-3.4288,-3.4305,-3.4338,-3.4352,-3.4366,-3.437,-3.4398,-3.4427,-3.4398,-3.4404,-3.4384,-3.4413,-3.4492,-3.4378,-3.4377,-3.4401,-3.4573,-3.4597,-3.4613,-3.4472,-3.4475,-3.4476,-3.4573,0,-3.438,-3.4433,-3.4407,-3.4465,-3.4487,-3.4445,-3.4474,-3.4475,-3.4466,-3.4484,-3.4474,-3.4495,-3.4455,-3.4459,-3.4486,-3.4476,-3.4526,-3.4469,-3.4501,-3.4502,-3.4503,-3.4629,-3.4654,-3.4746,-3.4585,-3.4587,-3.4589,0,-3.4489,-3.4498,-3.4558,-3.4551,-3.4559,-3.4585,-3.4598,-3.4615,-3.4617,-3.4609,-3.4617,-3.4591,-3.4626,-3.4578,-3.4627,-3.4589,-3.4601,-3.4599,-3.4602,-3.4604,-3.4551,-3.4637,-3.4774,-3.4788,-3.4607,-3.4606,-3.4605,0,-3.4581,-3.4608,-3.4648,-3.4651,-3.4644,-3.4664,-3.4663,-3.4662,-3.4673,-3.4684,-3.4692,-3.4707,-3.4716,-3.473,-3.4711,-3.4677,-3.4764,-3.4713,-3.476,-3.476,-3.478,-3.4779,-3.4923,-3.4786,-3.4786,-3.4785,-3.4785,0,-3.4683,-3.4722,-3.469,-3.4715,-3.4758,-3.4729,-3.4774,-3.4768,-3.4769,-3.4793,-3.4758,-3.4783,-3.4755,-3.4778,-3.4762,-3.4807,-3.4811,-3.4807,-3.4803,-3.4811,-3.4812,-3.4819,-3.4812,-3.4789,-3.4788,-3.4787,-3.4787,0,-3.4793,-3.4773,-3.4814,-3.4805,-3.4804,-3.4836,-3.4829,-3.4853,-3.4842,-3.4874,-3.488,-3.4863,-3.4889,-3.487,-3.4895,-3.4886,-3.4945,-3.4931,-3.4944,-3.4941,-3.4989,-3.4986,-3.5143,-3.5164,-3.5012,-3.5014,-3.5015,0,-3.4859,-3.4888,-3.4882,-3.4896,-3.4896,-3.4919,-3.493,-3.4904,-3.4918,-3.4924,-3.4948,-3.4971,-3.4987,-3.503,-3.5022,-3.5042,-3.5029,-3.5083,-3.5032,-3.5041,-3.5033,-3.5032,-3.5036,-3.5094,-3.5096,-3.5097,-3.5098,0,-3.498,-3.4969,-3.4986,-3.5001,-3.5015,-3.5026,-3.5033,-3.5047,-3.5021,-3.5039,-3.5064,-3.5077,-3.5104,-3.5127,-3.5145,-3.5145,-3.5119,-3.5115,-3.5127,-3.5136,-3.5143,-3.5142,-3.4974,-3.5111,-3.511,-3.5109,-3.5108,-3.5108,-3.5071,-3.5096,-3.5097,-3.5118,-3.5121,-3.513,-3.5153,-3.5145,-3.5165,-3.5184,-3.5168,-3.5199,-3.5204,-3.5225,-3.523,-3.5256,-3.5234,-3.5251,-3.5255,-3.526,-3.5268,-3.5138,-3.5258,-3.5258,-3.5258,-3.5257,-3.5257,0,-3.5192,-3.5191,-3.521,-3.5222,-3.524,-3.5212,-3.5221,-3.5238,-3.5265,-3.5271,-3.5289,-3.532,-3.5344,-3.5338,-3.536,-3.5383,-3.5371,-3.5389,-3.5388,-3.539,-3.5285,-3.5273,-3.5398,-3.5398,-3.5398,-3.5398,-3.5398,-3.5398,-3.5257,-3.5298,-3.5289,-3.5333,-3.5332,-3.5361,-3.5369,-3.5378,-3.5383,-3.5419,-3.5439,-3.5434,-3.5437,-3.546,-3.5482,-3.548,-3.5491,-3.5514,-3.5508,-3.541,-3.5396,-3.5383,-3.5372,-3.5516,-3.5516,-3.561,-3.5611,-3.5612]},{"header":{"parameterUnit":"m.s-1","parameterCategory":1,"la1":30.2991,"la2":30.254,"lo1":-89.0895,"lo2":-89.0444,"dy":0.0017,"dx":0.0017,"nx":28,"ny":28,"refTime":"2024-06-15T09:00:00:Z","depth":0,"parameterNumber":3,"parameterNumberName":"V-component_of_WINDS"},"data":[0,0,0,0,0,0,0,0,0,0,0,0,0,0,0,0,0,0,0,0,0,0,0,0,0,0,0,0,0,0,0,0,0,0,0,0,0,0,0,0,0,0,0,0,0,0,0,0,0,0,0,0,0,0,0,0,0,0,2.1435,2.1435,0,2.1456,2.1456,2.1456,2.1531,2.1533,2.1534,2.1536,2.1552,2.1551,2.1549,0,0,0,0,0,0,0,0,0,0,0,0,0,2.1455,2.1455,2.1435,2.1435,2.1436,2.1456,2.1456,2.1456,2.1531,2.1533,2.1535,2.1537,2.1552,2.1551,2.1549,0,0,0,0,0,0,0,0,0,0,0,0,0,2.1458,2.1454,2.1435,2.1475,2.1479,2.1456,2.1456,2.1457,2.153,2.1533,2.1535,2.1538,2.1553,2.1551,2.1549,2.1487,0,0,2.1544,2.1543,0,0,0,0,0,0,0,0,2.1458,2.1457,2.1469,2.1472,2.1477,2.1494,2.1469,2.1467,2.153,2.1511,2.1536,2.1539,2.153,2.153,2.1528,2.1488,2.1488,2.1544,2.1542,2.1542,2.1541,0,0,0,0,0,0,0,2.1458,2.1457,2.1443,2.1469,2.1474,2.1491,2.1494,2.1469,2.1505,2.1512,2.1518,2.152,2.1532,2.153,2.1529,2.1489,2.1544,2.1542,2.1541,2.154,2.1398,2.1396,0,0,0,0,0,0,2.1452,2.1456,2.1443,2.1444,2.1474,2.1488,2.1492,2.1485,2.1506,2.1512,2.1517,2.1523,2.1532,2.1531,2.153,2.1458,2.1542,2.154,2.1539,2.1401,2.1398,2.1395,0,0,0,0,0,0,2.1453,2.1451,2.1442,2.1452,2.1452,2.1485,2.1477,2.1485,2.1482,2.151,2.1516,2.1508,2.1534,2.1532,2.1498,2.146,2.1539,2.1538,2.1404,2.14,2.1396,2.1314,0,0,0,0,0,0,2.1453,2.145,2.1428,2.1451,2.1451,2.141,2.1475,2.1483,2.1479,2.1487,2.1503,2.1508,2.1535,2.15,2.1496,2.1459,2.1536,2.1408,2.1402,2.1398,2.1321,2.1308,2.1297,0,0,0,0,0,2.1453,2.1402,2.1426,2.1424,2.1424,2.1408,2.1408,2.1442,2.1476,2.1453,2.1471,2.1507,2.1465,2.1496,2.1492,2.1454,2.141,2.1404,2.1398,2.1326,2.1311,2.1298,0,0,0,0,0,0,2.1372,2.1406,2.1433,2.1388,2.1395,2.142,2.1392,2.1425,2.142,2.1427,2.1468,2.1471,2.143,2.1439,2.1472,2.1395,2.1444,2.1437,2.139,2.1376,2.1365,2.1362,2.1535,0,0,0,0,0,2.1349,2.1335,2.1365,2.1322,2.1325,2.1358,2.1352,2.1378,2.1386,2.1388,2.1404,2.1408,2.1396,2.1387,2.1377,2.1323,2.1327,2.1295,2.1284,2.1274,2.1266,2.1238,2.1224,2.1375,2.1375,2.1375,0,0,2.1301,2.1318,2.1306,2.1307,2.1315,2.1297,2.1359,2.1338,2.1325,2.1384,2.1352,2.1364,2.1372,2.1327,2.1308,2.1333,2.1226,2.1266,2.1258,2.1256,2.123,2.1216,2.1203,2.1371,2.1372,2.1372,0,0,2.1204,2.1216,2.1182,2.119,2.1202,2.1225,2.1217,2.1238,2.1249,2.1218,2.1262,2.1247,2.1225,2.1229,2.1228,2.1135,2.1168,2.1131,2.1069,2.1041,2.1029,2.1019,2.0984,2.0971,2.1124,2.1124,2.1124,0,2.1142,2.1119,2.116,2.1137,2.1135,2.1191,2.1156,2.1161,2.1168,2.1165,2.1194,2.1169,2.1178,2.1135,2.1112,2.111,2.1101,2.1128,2.1028,2.1018,2.1009,2.0976,2.0963,2.1119,2.112,2.112,2.112,0,2.1042,2.1025,2.0996,2.1004,2.1,2.097,2.1006,2.0996,2.1024,2.1043,2.1011,2.1025,2.1019,2.1011,2.1036,2.0971,2.0986,2.1021,2.107,2.0989,2.0959,2.0947,2.1112,2.1114,2.1115,2.1117,0,0,2.0891,2.0925,2.0913,2.0918,2.0937,2.0924,2.0897,2.0893,2.0884,2.0888,2.0865,2.0847,2.088,2.0878,2.0905,2.0881,2.0805,2.0919,2.0919,2.0895,2.0733,2.0705,2.069,2.0828,2.0826,2.0824,2.0732,0,2.0798,2.0756,2.0793,2.0742,2.0727,2.0781,2.0758,2.0766,2.0783,2.0772,2.0792,2.0777,2.0822,2.0822,2.08,2.0819,2.0772,2.0826,2.0805,2.0804,2.0799,2.0675,2.0645,2.0557,2.072,2.0718,2.0717,0,2.0683,2.0684,2.0633,2.0656,2.0651,2.0629,2.0629,2.0618,2.0629,2.0643,2.0643,2.0677,2.0651,2.0702,2.0666,2.0702,2.0696,2.0704,2.0701,2.0698,2.0754,2.0667,2.053,2.0516,2.0699,2.0701,2.0702,0,2.0577,2.0565,2.0533,2.0536,2.0562,2.0546,2.0555,2.0569,2.0565,2.0564,2.0562,2.0558,2.0555,2.0551,2.0582,2.0616,2.0542,2.0595,2.0551,2.055,2.0531,2.0531,2.0389,2.0531,2.0531,2.0531,2.0531,0,2.0468,2.0433,2.0486,2.0466,2.0429,2.0472,2.0434,2.045,2.0462,2.0444,2.0491,2.0473,2.0517,2.0504,2.0529,2.0495,2.0493,2.0503,2.051,2.0498,2.0496,2.0493,2.0499,2.0528,2.0528,2.0529,2.053,0,2.0341,2.0375,2.0344,2.0372,2.0379,2.035,2.0374,2.0356,2.0379,2.0356,2.0353,2.0387,2.0374,2.0406,2.0397,2.0414,2.0365,2.0382,2.0361,2.0366,2.032,2.0323,2.0168,2.015,2.0305,2.0303,2.0302,0,2.0268,2.0244,2.0271,2.0264,2.0272,2.0259,2.0256,2.0298,2.0292,2.0303,2.0283,2.0275,2.027,2.0247,2.0269,2.0263,2.0279,2.0226,2.0278,2.0267,2.0276,2.0276,2.0274,2.0214,2.0212,2.021,2.0209,0,2.0135,2.0153,2.0148,2.0148,2.0143,2.0145,2.0149,2.014,2.0185,2.0176,2.0165,2.0161,2.0154,2.0144,2.0143,2.0152,2.0187,2.0193,2.0182,2.0168,2.0157,2.0161,2.033,2.0195,2.0197,2.0198,2.0198,2.0199,2.0032,2.0013,2.0029,2.0021,2.003,2.0033,2.0018,2.0039,2.0031,2.0029,2.0054,2.0037,2.0049,2.0052,2.0057,2.0044,2.0068,2.0052,2.0048,2.0043,2.0035,2.0161,2.0044,2.0044,2.0045,2.0045,2.0045,0,1.99,1.9913,1.9906,1.9912,1.9906,1.9943,1.995,1.9942,1.9927,1.9936,1.9931,1.9917,1.9909,1.9932,1.9926,1.9911,1.9927,1.9908,1.9908,1.9909,2.0014,2.0024,1.9895,1.9895,1.9895,1.9895,1.9895,1.9895,1.983,1.9799,1.982,1.9793,1.9807,1.9793,1.9793,1.9797,1.9804,1.9788,1.9782,1.9798,1.9812,1.9808,1.9802,1.9809,1.9804,1.9778,1.9791,1.9888,1.9902,1.9916,1.9925,1.9778,1.9777,1.9687,1.9686,1.9685]}]]